Temperature
8 8 9 10 11 13 15 15 15 16 17 16 16 17 18 19 18 19 19 19 19 19 19 18 17 17 16 15 15 15 15 15 14 13 13 13 13 12 12 12 12 11 11 11
8 8 10 12 12 12 13 13 14 15 16 16 16 17 18 19 19 18 19 19 19 19 19 18 17 16 16 16 16 16 15 15 15 15 15 15 14 12 12 12 12 12 11 11
8 10 11 11 11 11 12 12 14 14 14 15 15 16 17 18 18 18 18 19 19 19 19 18 17 17 17 16 16 17 17 16 16 16 14 13 12 11 11 12 12 12 12 11
8 10 10 10 10 11 11 13 13 13 13 13 14 15 17 18 18 18 18 18 19 19 19 19 18 17 17 18 18 18 17 17 17 16 14 13 13 13 14 14 13 12 12 11
8 9 9 9 10 11 11 13 13 12 12 13 13 14 17 18 17 18 19 19 18 18 18 18 18 18 18 19 18 18 17 17 16 16 15 14 14 15 14 13 12 12 12 12
7 9 9 10 11 11 11 11 11 11 11 10 13 13 15 18 18 19 19 19 19 18 18 18 18 18 18 18 18 18 17 17 16 16 15 15 15 14 13 12 12 12 12 12
6 8 8 9 9 10 10 9 9 9 10 11 14 14 15 18 18 19 19 19 19 18 18 18 18 18 18 18 18 18 18 17 17 16 15 15 15 14 13 13 13 12 12 12
5 7 8 8 8 8 9 9 10 11 12 13 14 14 16 18 18 18 18 18 18 18 18 18 18 18 18 18 18 18 18 18 17 16 16 16 15 14 13 13 13 12 13 13
5 7 8 8 8 8 8 9 11 12 13 13 13 15 17 16 17 17 17 17 17 17 17 17 17 17 18 18 18 18 18 18 17 17 16 16 15 14 14 13 12 12 12 12
3 5 7 8 8 9 9 9 10 9 11 12 13 14 16 16 16 16 17 17 16 16 16 16 16 17 17 17 17 18 18 18 17 17 16 16 16 15 14 13 12 12 12 12
3 4 5 6 6 7 8 8 8 9 11 12 13 15 16 16 16 16 17 17 16 16 16 15 15 16 17 17 17 17 17 17 17 16 16 16 15 14 14 13 12 12 12 11
3 3 4 6 6 7 7 7 8 9 9 12 13 15 15 16 16 16 16 15 15 15 15 15 15 15 16 16 17 17 17 17 17 16 16 15 15 14 13 12 12 12 11 11
3 3 4 5 5 5 6 6 7 8 10 11 13 14 15 15 14 14 14 14 14 13 13 14 14 14 15 15 16 16 16 17 16 16 15 15 14 14 13 12 12 12 11 11
3 2 3 4 4 4 4 5 6 7 8 10 12 14 14 13 13 14 13 13 13 12 12 13 13 14 14 15 15 16 16 16 16 15 15 14 14 14 13 13 12 11 11 11
2 2 3 4 5 4 4 5 6 6 7 9 11 12 13 13 13 13 13 12 12 11 11 12 12 13 13 14 15 15 16 16 16 15 15 15 14 13 13 12 12 11 11 10
2 2 3 4 5 5 5 6 6 6 7 9 10 11 12 12 12 12 12 11 11 11 11 11 12 12 13 14 14 15 15 15 15 15 15 14 14 13 12 12 11 11 10 10
2 1 2 3 5 5 5 6 6 7 7 9 9 10 11 11 11 11 11 11 11 11 11 11 12 12 13 13 14 15 15 15 15 15 15 14 14 13 12 12 11 11 10 10
1 1 2 3 3 3 6 7 7 7 7 7 8 8 9 10 10 10 10 10 10 10 11 11 11 12 13 13 13 14 14 15 14 14 14 14 13 13 12 11 11 11 10 10
1 1 1 2 3 4 6 6 6 6 6 6 7 8 8 8 10 10 9 9 9 10 10 11 11 12 12 13 13 14 14 14 14 14 14 13 13 12 12 11 11 10 10 9
2 1 1 2 2 4 5 5 5 6 5 6 6 7 7 8 9 10 9 8 9 9 10 10 11 12 12 12 13 13 13 14 14 14 13 13 12 12 12 11 11 10 9 9
1 1 1 1 2 4 4 4 5 5 5 5 5 6 6 7 7 8 8 8 8 8 9 10 11 11 12 12 12 13 13 13 13 13 13 12 12 12 11 11 10 9 9 9
1 1 1 1 2 3 4 4 4 4 4 4 4 4 5 5 6 6 7 7 7 8 9 9 10 11 11 12 12 12 13 13 13 13 12 12 11 11 11 10 10 9 9 8
1 2 2 2 3 4 4 3 3 3 3 3 4 4 4 4 5 5 6 6 7 7 8 9 9 10 11 11 11 12 12 12 12 12 12 11 11 10 10 10 9 9 8 8
1 1 1 2 3 3 3 3 3 3 3 3 3 3 3 3 4 4 5 5 6 7 7 8 9 9 10 10 11 11 12 12 12 11 11 11 10 10 9 9 9 8 8 8
1 1 1 1 2 3 3 2 2 2 2 2 2 2 2 3 3 4 4 5 5 6 7 7 8 8 9 10 10 11 11 11 11 11 10 10 9 9 9 8 8 8 8 8
1 0 0 1 2 1 2 1 1 1 1 1 1 2 2 2 2 3 3 4 5 5 6 7 7 8 9 9 9 10 10 10 10 10 9 9 9 8 8 7 7 7 7 7
Wind_Speed
14 14 21 27 29 28 24 25 26 23 18 19 25 27 25 21 19 21 21 21 21 21 21 20 20 21 21 21 22 23 23 22 19 16 16 16 15 14 14 14 17 19 19 19
15 24 29 26 25 27 26 26 24 18 16 16 21 25 23 24 24 22 23 23 23 22 20 18 19 20 22 23 24 24 24 23 22 19 18 17 16 14 13 12 16 19 20 20
26 21 23 25 25 27 28 28 25 18 13 15 15 21 24 23 23 23 23 23 23 23 22 20 20 21 22 24 25 23 25 25 25 23 16 14 12 11 12 15 15 18 21 21
21 23 21 23 26 27 27 26 23 20 15 12 16 16 22 22 23 24 24 24 24 23 23 21 20 20 22 23 23 24 25 25 25 24 20 21 17 17 20 16 16 17 21 21
15 18 22 25 26 26 22 20 21 20 19 16 16 14 17 17 22 24 24 24 24 23 22 22 21 20 21 21 21 23 24 25 25 25 25 23 21 19 16 16 18 18 18 20
18 15 15 20 21 21 16 14 15 16 14 19 24 19 16 18 22 22 22 23 23 22 22 21 20 18 18 18 19 20 23 25 25 26 26 26 25 22 19 20 18 17 14 16
12 16 14 10 13 18 18 13 10 13 14 17 21 20 18 17 18 20 20 20 20 20 20 20 20 19 18 18 19 20 23 24 25 26 26 26 26 25 23 21 20 18 15 16
8 12 14 12 16 14 22 22 15 12 15 17 19 20 18 18 16 17 18 18 17 18 18 19 19 19 19 19 20 21 23 23 24 25 26 25 25 20 18 21 18 19 16 17
5 8 9 12 15 16 16 21 20 13 13 14 13 15 16 12 16 17 18 16 16 15 16 17 17 17 17 18 19 21 22 22 23 25 25 24 25 23 21 21 20 17 17 16
5 7 7 8 10 18 15 14 12 12 12 14 13 18 13 14 16 16 16 15 14 13 12 12 12 13 14 15 16 18 20 21 22 23 22 20 23 23 22 20 20 19 19 17
4 5 5 5 9 13 14 14 11 12 13 12 13 11 10 12 13 14 15 15 13 12 11 10 9 9 10 11 13 15 17 18 19 20 21 21 21 22 21 20 20 19 18 18
3 4 6 7 6 7 11 12 13 13 11 16 14 9 6 9 9 10 10 9 9 9 8 7 7 7 7 9 11 13 14 16 17 18 19 20 20 20 20 20 20 19 19 18
3 3 4 3 3 3 7 10 12 13 12 15 18 13 5 3 4 4 5 5 5 5 5 5 6 6 6 7 9 10 12 13 14 16 17 18 19 19 20 20 19 18 18 17
5 3 5 6 4 4 7 10 11 12 11 14 18 17 7 5 5 4 4 3 3 3 3 4 4 4 4 5 6 8 10 11 12 14 15 17 18 18 18 18 18 17 17 17
4 5 7 10 10 9 10 12 13 14 15 15 17 17 12 6 5 4 3 2 1 2 2 3 3 3 4 4 5 6 8 9 11 13 14 15 15 16 16 16 16 16 15 15
3 5 8 10 9 9 12 13 14 16 18 19 17 16 10 6 4 3 3 2 1 2 2 2 2 3 3 4 5 5 7 8 10 12 12 12 13 14 14 15 14 14 14 14
4 4 5 7 8 7 9 10 12 13 15 16 16 12 7 6 6 5 4 3 2 1 1 2 3 3 4 4 5 5 6 8 9 10 11 12 13 13 13 13 14 14 14 14
8 7 5 5 5 7 4 4 8 11 10 10 9 7 7 8 7 5 4 4 4 4 3 2 2 3 3 3 4 4 6 8 9 9 10 11 12 12 13 13 14 13 12 13
12 8 5 4 5 8 5 3 5 9 8 8 9 8 7 7 6 5 5 6 7 6 5 4 3 3 3 3 4 5 6 7 8 9 10 11 11 12 13 13 13 12 12 11
8 10 6 5 5 6 3 6 6 6 6 4 5 5 6 6 7 7 8 9 8 7 6 5 4 3 3 4 5 6 6 8 9 9 9 10 11 12 12 12 12 10 10 10
4 6 8 8 7 6 5 7 2 5 3 5 5 6 6 7 9 10 10 9 8 8 7 6 4 3 4 4 5 6 6 7 8 8 8 9 10 11 11 11 10 11 10 10
5 5 6 6 7 6 3 2 1 3 5 7 7 8 9 10 12 11 11 10 9 9 8 6 5 4 3 4 6 6 6 6 6 8 9 9 9 9 9 11 10 11 11 11
6 5 4 6 7 5 4 5 6 6 8 9 10 11 11 12 13 13 13 12 11 9 8 6 6 5 3 5 6 6 6 6 7 9 9 9 9 9 10 11 12 11 10 9
6 6 7 8 10 11 10 10 9 9 11 13 13 13 13 14 14 14 12 12 11 9 8 6 6 5 5 4 5 5 6 7 9 9 9 9 9 9 9 8 9 9 10 10
10 6 8 13 13 13 11 11 12 14 15 15 14 13 13 14 15 14 12 12 10 9 8 7 7 6 6 4 4 5 7 8 9 9 9 9 9 9 8 7 6 7 7 8
11 11 11 12 11 11 15 15 16 17 17 16 16 16 14 13 14 14 12 11 10 9 8 7 7 6 5 5 5 5 7 8 10 9 9 8 8 8 8 8 7 7 6 9
Wind_Direction
209 212 216 216 217 226 228 226 228 229 222 218 230 237 238 233 229 232 232 229 226 225 225 216 208 204 200 198 196 195 194 194 190 190 192 194 198 199 199 200 199 198 198 196
219 224 226 226 225 227 231 232 231 231 223 224 237 241 240 237 233 232 233 230 228 227 224 216 208 203 201 199 198 197 196 194 193 195 197 199 199 200 200 198 201 201 201 199
222 228 224 225 225 224 226 227 227 225 219 224 241 247 240 237 234 232 233 233 230 226 224 216 208 205 202 201 200 198 197 196 196 196 195 194 195 196 198 201 202 203 203 202
231 235 228 224 225 224 228 225 229 226 221 224 219 246 237 230 229 228 229 228 228 226 225 221 213 207 204 203 200 200 199 198 197 195 195 192 194 199 203 202 202 201 202 204
227 225 225 225 223 221 228 225 224 226 228 236 225 239 245 223 227 225 224 224 224 224 223 222 217 210 207 204 200 200 200 200 198 196 198 198 202 206 204 202 202 200 201 204
246 240 230 230 230 223 219 216 222 227 230 234 227 228 246 223 225 225 222 222 223 222 221 222 220 215 210 204 200 200 200 201 200 199 200 202 205 205 202 200 200 199 199 202
243 236 225 227 223 216 208 195 201 208 216 230 221 224 239 232 225 226 223 222 222 221 220 220 218 213 210 204 200 199 200 201 200 200 202 204 207 207 205 202 202 199 199 201
234 230 215 211 215 212 209 204 206 207 217 226 216 225 234 230 225 228 231 229 225 221 219 219 218 215 212 206 202 200 201 202 200 201 203 206 207 208 209 207 203 202 202 203
256 243 220 217 212 211 212 213 221 232 234 225 213 228 236 225 222 223 227 228 226 223 221 220 218 215 212 208 204 202 201 202 201 201 202 205 206 207 207 206 206 205 205 203
273 271 252 223 216 211 217 210 209 217 218 224 219 222 220 203 209 210 216 220 223 222 219 218 215 212 211 208 205 203 204 203 202 201 202 203 204 205 206 205 205 205 204 200
262 261 266 224 207 206 203 208 210 213 223 222 224 225 216 209 208 210 217 222 225 222 216 213 211 208 205 202 198 198 201 202 201 201 201 202 203 204 204 205 205 204 203 199
274 271 262 241 224 219 202 205 206 205 207 220 230 229 169 206 211 212 218 225 228 225 218 211 204 195 191 193 194 195 197 198 199 198 199 201 201 201 202 204 203 202 202 200
311 278 280 240 214 224 215 213 218 224 222 218 219 223 189 220 230 226 228 230 219 210 201 196 189 188 189 189 190 192 193 195 194 194 196 198 199 199 201 202 201 200 200 198
311 263 253 262 284 270 250 240 229 223 221 222 224 226 221 234 239 246 245 236 212 195 182 178 180 185 185 184 184 186 189 189 188 189 192 195 197 198 199 199 198 197 197 196
311 270 263 271 272 257 256 253 239 229 229 227 228 230 232 250 257 254 252 244 213 199 189 182 186 186 182 178 178 182 184 183 182 184 190 194 193 194 194 195 194 193 193 193
281 274 277 268 264 259 258 251 241 232 231 235 240 240 244 263 279 274 267 270 261 226 213 207 208 203 198 190 182 179 180 180 180 183 186 186 186 187 189 189 188 187 188 188
259 267 280 268 279 267 250 240 234 225 227 231 235 240 248 257 262 268 279 288 289 281 250 233 229 225 215 202 186 181 179 174 177 180 179 180 182 184 184 181 182 183 185 184
242 249 259 273 273 237 252 249 238 232 234 242 250 266 260 260 260 261 268 288 300 313 314 286 261 248 234 204 186 171 166 170 173 175 175 177 178 179 177 178 180 181 181 183
224 227 243 253 258 264 272 273 252 236 242 253 254 266 282 287 268 266 301 304 293 292 295 289 272 250 228 201 179 165 163 168 175 179 178 176 176 174 175 177 179 177 176 178
213 216 232 245 251 248 293 319 299 241 244 295 278 277 286 288 245 257 303 305 303 305 304 301 293 259 214 192 172 171 172 177 185 185 180 176 175 174 175 176 173 171 170 170
202 210 224 238 249 261 306 324 307 211 259 315 296 286 289 265 263 286 298 295 294 298 303 302 288 258 222 190 177 181 182 192 189 178 172 172 173 174 172 169 168 163 160 158
232 230 221 229 237 249 341 343 267 285 310 315 313 305 295 285 287 296 294 292 292 294 296 297 288 272 231 196 187 189 194 188 173 167 166 168 169 165 165 164 162 161 158 157
237 242 254 237 249 283 298 288 287 301 305 306 306 304 300 293 289 290 288 286 285 285 287 286 280 271 241 211 199 196 190 171 167 165 165 164 162 163 165 165 162 161 162 163
251 248 253 261 262 277 282 288 292 301 303 302 299 297 295 291 290 288 285 285 285 285 283 279 272 261 245 227 213 198 177 169 166 165 163 162 160 159 161 162 164 166 168 167
258 253 255 261 275 288 280 285 296 303 304 304 302 296 292 288 286 284 283 281 281 282 280 270 259 251 240 224 207 186 173 167 165 163 162 162 160 157 156 154 158 166 172 174
249 248 253 262 277 279 283 291 297 299 299 300 301 299 296 287 282 282 279 277 276 274 273 265 254 243 230 211 198 187 177 170 165 164 165 164 161 156 153 145 126 95 121 128
Height
1430 1431 1423 1419 1420 1418 1415 1416 1416 1416 1420 1426 1424 1423 1423 1426 1429 1430 1431 1433 1436 1439 1442 1446 1450 1453 1458 1462 1467 1471 1475 1480 1485 1489 1492 1496 1499 1503 1507 1510 1513 1517 1520 1523
1424 1418 1412 1414 1416 1417 1416 1415 1414 1416 1418 1422 1419 1417 1416 1417 1419 1422 1424 1426 1429 1432 1436 1439 1443 1446 1450 1454 1459 1464 1468 1473 1477 1481 1485 1490 1494 1498 1502 1505 1508 1512 1515 1518
1410 1404 1408 1411 1411 1413 1412 1413 1412 1416 1418 1419 1419 1414 1410 1408 1412 1415 1417 1419 1421 1424 1428 1432 1435 1438 1442 1447 1451 1455 1460 1465 1470 1475 1480 1485 1490 1493 1496 1498 1501 1505 1509 1512
1404 1402 1404 1405 1405 1406 1406 1407 1411 1413 1418 1416 1416 1410 1397 1398 1402 1405 1408 1410 1413 1416 1420 1424 1428 1431 1434 1439 1444 1448 1453 1458 1463 1467 1472 1476 1479 1482 1486 1490 1494 1498 1502 1506
1396 1395 1397 1397 1397 1401 1401 1403 1409 1412 1414 1414 1411 1409 1390 1389 1392 1393 1396 1400 1404 1408 1412 1416 1420 1423 1427 1432 1436 1441 1446 1450 1455 1459 1463 1468 1472 1476 1481 1485 1488 1492 1495 1499
1395 1393 1394 1392 1394 1397 1400 1405 1408 1410 1414 1413 1401 1405 1389 1380 1380 1382 1386 1391 1395 1400 1404 1408 1412 1416 1420 1424 1428 1433 1438 1442 1447 1451 1455 1460 1464 1469 1473 1477 1480 1484 1488 1492
1391 1388 1389 1392 1393 1394 1396 1402 1407 1407 1405 1394 1387 1391 1380 1370 1372 1375 1379 1383 1387 1392 1396 1399 1403 1407 1411 1415 1420 1425 1429 1434 1439 1443 1447 1451 1456 1461 1465 1469 1473 1477 1481 1484
1389 1380 1381 1385 1388 1387 1387 1390 1388 1386 1383 1376 1377 1377 1366 1364 1369 1372 1375 1377 1381 1384 1388 1391 1395 1399 1403 1407 1411 1416 1421 1426 1431 1435 1439 1444 1449 1453 1458 1462 1466 1470 1473 1477
1390 1379 1376 1379 1381 1385 1384 1382 1379 1378 1369 1368 1369 1364 1359 1362 1364 1367 1370 1372 1374 1378 1381 1384 1388 1391 1395 1399 1403 1408 1413 1418 1422 1427 1432 1436 1441 1445 1449 1454 1459 1463 1467 1471
1396 1388 1377 1377 1378 1378 1380 1379 1381 1382 1375 1370 1363 1359 1354 1357 1359 1362 1364 1366 1369 1372 1375 1378 1381 1384 1388 1392 1396 1400 1405 1410 1415 1419 1424 1428 1433 1437 1442 1447 1451 1455 1460 1464
1397 1391 1380 1376 1374 1372 1377 1378 1377 1375 1367 1363 1359 1353 1347 1350 1353 1356 1357 1360 1363 1367 1370 1372 1375 1378 1381 1385 1389 1393 1397 1402 1407 1412 1416 1421 1425 1430 1435 1439 1444 1449 1453 1458
1396 1390 1381 1375 1373 1373 1372 1373 1374 1371 1367 1360 1354 1350 1345 1346 1348 1351 1354 1357 1360 1363 1366 1368 1371 1373 1376 1379 1382 1386 1390 1395 1399 1404 1409 1414 1418 1423 1428 1432 1437 1442 1447 1451
1395 1392 1382 1370 1376 1377 1374 1374 1374 1370 1363 1354 1351 1349 1345 1347 1349 1352 1354 1355 1357 1359 1361 1364 1366 1369 1371 1374 1377 1380 1384 1388 1393 1398 1402 1407 1412 1416 1421 1426 1431 1435 1440 1445
1395 1392 1387 1379 1376 1378 1375 1373 1373 1371 1364 1356 1348 1344 1346 1348 1350 1351 1353 1354 1356 1358 1359 1361 1363 1365 1367 1370 1372 1376 1379 1383 1387 1392 1396 1401 1405 1410 1415 1420 1425 1429 1434 1439
1395 1390 1384 1378 1375 1375 1373 1370 1369 1368 1363 1356 1347 1345 1345 1349 1350 1351 1353 1354 1355 1356 1357 1358 1360 1362 1364 1366 1369 1372 1375 1379 1383 1387 1391 1395 1400 1405 1410 1414 1419 1424 1428 1433
1394 1391 1384 1376 1370 1369 1368 1364 1362 1361 1359 1354 1349 1347 1347 1351 1352 1351 1352 1353 1353 1354 1355 1357 1358 1359 1361 1364 1366 1369 1372 1375 1379 1383 1387 1391 1396 1400 1404 1409 1414 1419 1423 1428
1392 1391 1385 1373 1367 1366 1362 1358 1356 1355 1353 1351 1348 1349 1350 1352 1352 1352 1352 1352 1353 1353 1354 1355 1356 1358 1359 1362 1364 1366 1369 1372 1376 1379 1383 1387 1391 1395 1400 1404 1409 1414 1418 1423
1392 1390 1386 1376 1370 1367 1355 1352 1353 1352 1352 1353 1352 1352 1352 1351 1351 1352 1353 1352 1352 1352 1353 1353 1355 1356 1358 1360 1362 1365 1367 1370 1373 1377 1380 1384 1388 1392 1396 1400 1404 1409 1413 1418
1386 1387 1383 1376 1367 1357 1352 1353 1353 1353 1353 1354 1353 1353 1353 1352 1350 1349 1350 1351 1352 1352 1352 1352 1353 1355 1356 1358 1360 1362 1365 1368 1371 1374 1377 1381 1385 1388 1392 1396 1400 1405 1409 1414
1381 1383 1381 1375 1368 1357 1353 1353 1352 1353 1352 1354 1353 1353 1353 1352 1350 1347 1349 1349 1350 1350 1351 1351 1351 1352 1354 1356 1358 1359 1362 1365 1368 1371 1375 1378 1382 1386 1389 1393 1397 1402 1406 1410
1379 1379 1378 1373 1367 1356 1356 1355 1352 1355 1354 1355 1354 1353 1353 1352 1351 1350 1349 1348 1348 1348 1348 1348 1348 1349 1351 1353 1355 1357 1359 1362 1365 1369 1372 1375 1379 1383 1387 1391 1395 1399 1403 1407
1374 1372 1372 1370 1366 1361 1356 1356 1357 1356 1354 1354 1353 1353 1352 1350 1349 1348 1346 1345 1344 1344 1344 1345 1345 1346 1348 1349 1351 1353 1356 1359 1362 1365 1369 1372 1376 1380 1384 1388 1392 1396 1400 1404
1371 1369 1367 1366 1360 1356 1357 1357 1356 1356 1355 1353 1352 1351 1350 1347 1345 1344 1342 1341 1341 1340 1340 1341 1342 1342 1344 1346 1348 1350 1353 1356 1358 1362 1365 1369 1373 1377 1381 1385 1389 1393 1397 1400
1367 1368 1366 1362 1355 1356 1355 1354 1354 1353 1352 1351 1349 1347 1345 1344 1341 1339 1338 1336 1335 1335 1336 1336 1337 1338 1339 1341 1343 1346 1349 1352 1355 1358 1361 1366 1369 1373 1378 1382 1386 1390 1393 1397
1364 1365 1362 1358 1355 1353 1351 1351 1351 1349 1348 1346 1344 1343 1341 1339 1336 1334 1333 1331 1330 1330 1330 1331 1332 1333 1334 1337 1339 1342 1345 1347 1350 1354 1358 1362 1366 1370 1374 1378 1383 1387 1391 1394
1361 1362 1360 1354 1353 1353 1349 1348 1347 1345 1343 1341 1338 1335 1334 1333 1330 1328 1327 1326 1325 1325 1325 1326 1327 1328 1330 1332 1335 1338 1340 1344 1347 1350 1354 1358 1362 1366 1371 1375 1379 1384 1388 1392